Regional Weather Roundup
Issued by NWS

Home | Current Version | Previous Version | Text Only | Print | Product List | Glossary Off
Versions: 1 2 3 4 5 6 7 8 9 10 11 12 13 14 15 16 17 18 19 20 21 22 23 24 25 26 27 28 29 30 31 32 33 34 35 36 37 38 39 40 41 42 43 44 45 46 47 48 49 50

000
ASUS45 KSLC 090410
RWRUT

UTAH REGIONAL WEATHER ROUNDUP
NATIONAL WEATHER SERVICE SALT LAKE CITY UT
900 PM MST THU DEC 08 2016

UTZ001>011-023>025-090500-

NORTHERN UTAH

CITY           SKY/WX    TMP DP  RH WIND       PRES   REMARKS
BRIGHAM CITY     N/A     24  21  89 CALM      30.16S
HILL AFB       CLOUDY    25  19  79 E6        30.14S WCI  18
LOGAN          FLURRIES  20  19  96 CALM      30.15S
OGDEN          CLOUDY    25  22  88 SW3       30.15R
SALT LAKE CITY CLOUDY    27  23  85 VRB3      30.16S
WENDOVER       MOCLDY    23  16  74 CALM      30.18R
HEBER CITY     FLURRIES  28  27  93 E3        30.13R

$$

UTZ011>015-024>027-090500-

CENTRAL/NORTHEAST UTAH

CITY           SKY/WX    TMP DP  RH WIND       PRES   REMARKS
PROVO AIRPORT  CLOUDY    30  25  81 E3        30.18R
MOAB/CANYONLAN CLEAR     22   4  46 NE3       30.28R
DELTA          PTCLDY    30  12  47 SW5       30.17R WCI  25
PRICE          MOCLDY    22  12  65 W3        30.24S
RICHFIELD      CLOUDY    28  16  59 CALM      30.21R
ROOSEVELT      LGT SNOW  23  19  86 CALM      30.26R
VERNAL         CLOUDY    19   9  65 CALM      30.24S

$$

UTZ013>016-019>022-027-090500-

SOUTHERN UTAH

CITY           SKY/WX    TMP DP  RH WIND       PRES   REMARKS
BRYCE CANYON   CLEAR     14   8  77 SW6       30.26R WCI   5
CEDAR CITY     MOCLDY    33  20  58 CALM      30.22R
MILFORD        CLOUDY    39  17  41 S16       30.20R WCI  30
ST GEORGE      MOCLDY    39  14  35 CALM      30.29R
HANKSVILLE     CLEAR     25   5  42 NE5       30.32R WCI  19
KANAB          PTCLDY    32  14  47 E5        30.31R WCI  27
BLANDING       CLOUDY    31  12  46 N6        30.35S WCI  25

$$

REGIONAL REPORTS     COLORADO/ARIZONA

CITY           SKY/WX    TMP DP  RH WIND       PRES   REMARKS
CRAIG, CO      CLOUDY    21  13  71 E12       30.17S WCI   9
GRAND JUNCTION CLOUDY    26  16  65 E3        30.28R
RIFLE, CO      CLOUDY    24  13  62 CALM      30.27R
MONTROSE, CO   CLOUDY    27  15  61 E3        30.29R
CORTEZ, CO     CLOUDY    27  21  78 NE5       30.30R WCI  22
COLORADO CITY    N/A     30  23  74 CALM      30.29S
PAGE, AZ       CLEAR     35   7  31 W5        30.28R WCI  31
GRAND CANYON   CLOUDY    32  26  78 CALM      30.30R
KINGMAN, AZ    PTCLDY    41  21  44 SE7       30.26R
FLAGSTAFF, AZ  CLEAR     28  24  85 CALM      30.30R

$$

REGIONAL REPORTS    NEVADA/IDAHO/WYOMING

CITY           SKY/WX    TMP DP  RH WIND       PRES   REMARKS
LAS VEGAS, NV  MOCLDY    50  11  20 CALM      30.29R
ELY, NY        MOCLDY    29  13  51 CALM      30.20R
ELKO, NV       CLOUDY    28  25  88 W7        30.08F WCI  21
POCATELLO, ID  CLOUDY    20  18  92 N6        30.09F WCI  12
BURLEY, ID     LGT SNOW  23  21  92 NE7       30.04F FOG     WCI  15
FORT BRIDGER,  LGT SNOW   8   7  95 CALM      30.12R
EVANSTON, WY   LGT SNOW  12   7  80 SE7       30.07R WCI   1
ROCK SPRINGS,  LGT SNOW   9   6  88 SW5       30.09S FOG     WCI   1

$$



USA.gov is the U.S. government's official web portal to all federal, state and local government web resources and services.